Regional Weather Roundup
Issued by NWS

Home | Current Version | Previous Version | Graphics & Text | Print | Product List | Glossary On
Versions: 1 2 3 4 5 6 7 8 9 10 11 12 13 14 15 16 17 18 19 20 21 22 23 24 25 26 27 28 29 30 31 32 33 34 35 36 37 38 39 40 41 42 43 44 45 46 47 48 49 50
000
ASUS45 KPSR 010700
RWRAZ

PRELIMINARY ARIZONA REGIONAL HOURLY WEATHER ROUNDUP
NATIONAL WEATHER SERVICE PHOENIX AZ
1200 AM MST WED OCT 01 2014

NOTE: FAIR INDICATES FEW OR NO CLOUDS BELOW 12,000 FEET WITH NO
SIGNIFICANT WEATHER AND/OR OBSTRUCTIONS TO VISIBILITY.

AZZ001>003-036-010800-
NORTHWEST ARIZONA

CITY           SKY/WX    TMP DP  RH WIND       PRES   REMARKS
KINGMAN        CLEAR     60  42  51 SE7       29.87F
$$

AZZ004>008-015-016-018-010800-
NORTH CENTRAL ARIZONA

CITY           SKY/WX    TMP DP  RH WIND       PRES   REMARKS
GRAND CANYON   PTCLDY    38  36  92 CALM      30.04R
PRESCOTT       CLEAR     55  37  50 S6        29.97S
FLAGSTAFF      CLEAR     41  35  79 W3        30.06F
PAYSON         CLEAR     54  43  66 CALM      29.99S
$$

AZZ009>014-017-010800-
NORTHEAST ARIZONA

CITY           SKY/WX    TMP DP  RH WIND       PRES   REMARKS
WINSLOW        NOT AVBL
SAINT JOHNS    CLEAR     51  36  56 S5        29.98S
WINDOW ROCK    CLEAR     45  36  70 CALM      30.02S
$$

AZZ023-010800-
GREATER PHOENIX AREA

CITY           SKY/WX    TMP DP  RH WIND       PRES   REMARKS
PHOENIX        CLEAR     74  52  46 E9        29.74F
DEER VALLEY    CLEAR     70  48  45 NE5       29.77S
SCOTTSDALE     CLEAR     70  51  51 CALM      29.79S
MESA-GATEWAY   CLEAR     63  54  72 SE8       29.79F
$$

AZZ027-028-010800-
SOUTHWEST MARICOPA COUNTY AND PINAL COUNTY

CITY           SKY/WX    TMP DP  RH WIND       PRES   REMARKS
CASA GRANDE    CLEAR     66  41  39 CALM      29.78F
$$

AZZ503-504-507>509-010800-
SOUTHEAST ARIZONA

CITY           SKY/WX    TMP DP  RH WIND       PRES   REMARKS
TUCSON         CLEAR     69  41  36 S8        29.87F
DAVIS-MONTHAN  CLEAR     66  41  39 SE6       29.85F
NOGALES        CLEAR     56  45  66 CALM      29.95S
SIERRA VISTA   CLEAR     61  41  48 CALM      29.98S
SAFFORD        CLEAR     60  36  40 E5        29.86S
$$

AZZ020-021-025-026-031-010800-
SOUTHWEST ARIZONA

CITY           SKY/WX    TMP DP  RH WIND       PRES   REMARKS
YUMA           CLEAR     77  46  33 SE10      29.70S
$$

CAZ031-033-041-043-047-048-061-010800-
SOUTHERN CALIFORNIA

CITY           SKY/WX    TMP DP  RH WIND       PRES   REMARKS
DOWNTOWN L.A.  CLEAR     68  61  78 CALM      29.77S
L.A. AIRPORT   CLEAR     67  61  81 S5        29.77S
SAN DIEGO      MOCLDY    70  65  84 S6        29.80S
BURBANK        CLEAR     68  58  70 E6        29.78S
ONTARIO        CLEAR     68  54  60 SW6       29.79S
RIVERSIDE      CLEAR     69  54  58 CALM      29.79S
PALM SPRINGS   CLEAR     80  46  30 W5        29.72S
EL CENTRO NAS  CLEAR     77  45  32 W5        29.67S
IMPERIAL       CLEAR     75  49  39 SW5       29.67S
BLYTHE         CLEAR     71  40  32 E5        29.70R
$$

NVZ020-UTZ003-010800-
SOUTHERN NEVADA-UTAH

CITY           SKY/WX    TMP DP  RH WIND       PRES   REMARKS
LAS VEGAS      NOT AVBL
SALT LAKE CITY LGT RAIN  51  48  89 NW7       29.97R FOG
$$

NMZ009-TXZ055-010800-
NEW MEXICO-WEST TEXAS

CITY           SKY/WX    TMP DP  RH WIND       PRES   REMARKS
ALBUQUERQUE    CLEAR     54  33  45 E6        29.96S
EL PASO        CLEAR     70  38  31 S5        29.89R
$$


........................KEY........................
SKY/WX - SKY CONDITION/WEATHER
TMP    - TEMPERATURE IN FAHRENHEIT
DP     - DEW POINT IN FAHRENHEIT
RH     - RELATIVE HUMIDITY IN PERCENT
WIND   - DIRECTION AND SPEED IN MILES PER HOUR (MPH)
VRB    - VARIABLE WIND DIRECTION
PRES   - MEAN SEA LEVEL PRESSURE IN INCHES OF MERCURY
         F - FALLING PRESSURE   R - RISING PRESSURE
         S - STEADY PRESSURE
VSB    - VISIBILITY IN MILES
HX     - HEAT INDEX IN FAHRENHEIT
WCI    - WIND CHILL INDEX IN FAHRENHEIT
TC     - TEMPERATURE IN CELSIUS WHICH IS ALSO KNOWN AS
         TEMPERATURE IN CENTIGRADE
AFB    - AIR FORCE BASE
         LUKE AFB IS LUKE AIR FORCE BASE
         DAVIS-MONTHAN IS DAVIS-MONTHAN AIR FORCE BASE
NAS    - NAVAL AIR STATION
         EL CENTRO NAS IS EL CENTRO NAVAL AIR STATION
N/A    - NOT AVAILABLE



USA.gov is the U.S. government's official web portal to all federal, state and local government web resources and services.